Weather History for EGPF - December, 2012

Change the Weather History Date:

Wednesday, December 19, 2012

  Actual Average Record
Temperature  
Mean Temperature 42 °F -  
Max Temperature 44 °F 43 °F 51 °F (2008)
Min Temperature 41 °F 33 °F 10 °F (2010)
Degree Days  
Heating Degree Days 22    
Moisture  
Dew Point 37 °F    
Average Humidity 81    
Maximum Humidity 93    
Minimum Humidity 71    
Precipitation  
Precipitation 0.00 in - - ()
Sea Level Pressure  
Sea Level Pressure 29.93 in    
Wind  
Wind Speed 11 mph ()    
Max Wind Speed 20 mph    
Max Gust Speed 28 mph    
Visibility 6.0 miles    
Events Rain    
Averages and records for this station are not official NWS values.
T = Trace of Precipitation, MM = Missing Value Source: Averaged Metar Reports

Daily Weather History Graph

Daily Weather History Graph

Search for Another Location

Airport or City:

Trip Planner

Search our weather history database for the weather conditions in past years. The results will help you decide how hot, cold, wet, or windy it might be!

Date:

Astronomy

Dec. 19, 2012 Rise Set
Actual Time 8:45 AM GMT 3:44 PM GMT
Civil Twilight 7:58 AM GMT 4:31 PM GMT
Nautical Twilight 7:09 AM GMT 5:20 PM GMT
Astronomical Twilight 6:23 AM GMT 6:06 PM GMT
Moon 11:37 AM GMT (12/19) No Moon Set
Length of Visible Light 8h 33m
Length of Day
6h 58m
Waxing Crescent, 42% of the Moon is Illuminated
Dec 19
Waxing Crescent
Dec 20
First Quarter
Dec 28
Full
Jan 5
Last Quarter
Jan 11
New

Hourly Weather History & Observations

Time (GMT) Temp. Windchill Dew Point Humidity Pressure Visibility Wind Dir Wind Speed Gust Speed Precip Events Conditions
12:20 AM 42.8 °F 37.5 °F 39.2 °F 87% 30.06 in 6.2 mi ENE 9.2 mph - N/A   Mostly Cloudy
12:50 AM 42.8 °F 38.6 °F 39.2 °F 87% 30.06 in 6.2 mi East 6.9 mph - N/A   Mostly Cloudy
1:20 AM 42.8 °F 37.0 °F 39.2 °F 87% 30.04 in 6.2 mi ENE 10.4 mph - N/A   Mostly Cloudy
1:50 AM 42.8 °F 36.6 °F 37.4 °F 81% 30.04 in 6.2 mi ENE 11.5 mph - N/A   Mostly Cloudy
2:20 AM 42.8 °F 38.0 °F 37.4 °F 81% 30.04 in 6.2 mi East 8.1 mph - N/A   Mostly Cloudy
2:50 AM 41.0 °F 34.3 °F 37.4 °F 87% 30.04 in 6.2 mi East 11.5 mph - N/A   Overcast
3:20 AM 41.0 °F 33.9 °F 37.4 °F 87% 30.04 in 6.2 mi ENE 12.7 mph - N/A   Overcast
3:50 AM 41.0 °F 33.5 °F 37.4 °F 87% 30.01 in 6.2 mi ENE 13.8 mph - N/A   Overcast
4:20 AM 41.0 °F 33.1 °F 37.4 °F 87% 30.01 in 6.2 mi East 15.0 mph - N/A   Overcast
4:50 AM 41.0 °F 33.5 °F 37.4 °F 87% 29.98 in 6.2 mi ENE 13.8 mph - N/A   Mostly Cloudy
5:20 AM 41.0 °F 34.7 °F 37.4 °F 87% 29.98 in 6.2 mi ENE 10.4 mph - N/A   Mostly Cloudy
5:50 AM 41.0 °F 35.8 °F 37.4 °F 87% 29.98 in 6.2 mi ENE 8.1 mph - N/A   Mostly Cloudy
6:20 AM 42.8 °F 36.6 °F 37.4 °F 81% 29.98 in 6.2 mi East 11.5 mph - N/A   Mostly Cloudy
6:50 AM 42.8 °F 37.5 °F 37.4 °F 81% 29.98 in 6.2 mi East 9.2 mph - N/A   Mostly Cloudy
7:20 AM 42.8 °F 35.8 °F 35.6 °F 76% 29.95 in 6.2 mi East 13.8 mph - N/A   Mostly Cloudy
7:50 AM 42.8 °F 35.8 °F 37.4 °F 81% 29.95 in 6.2 mi East 13.8 mph - N/A   Mostly Cloudy
8:20 AM 42.8 °F 34.3 °F 35.6 °F 76% 29.95 in 6.2 mi East 19.6 mph - N/A   Mostly Cloudy
8:50 AM 44.6 °F 36.9 °F 35.6 °F 71% 29.95 in 6.2 mi ESE 18.4 mph - N/A   Mostly Cloudy
9:20 AM 44.6 °F 37.4 °F 35.6 °F 71% 29.95 in 6.2 mi ESE 16.1 mph - N/A   Mostly Cloudy
9:50 AM 44.6 °F 38.4 °F 35.6 °F 71% 29.95 in 6.2 mi East 12.7 mph - N/A   Mostly Cloudy
10:20 AM 44.6 °F 37.8 °F 35.6 °F 71% 29.95 in 6.2 mi East 15.0 mph - N/A   Mostly Cloudy
10:50 AM 44.6 °F 37.8 °F 35.6 °F 71% 29.95 in 6.2 mi East 15.0 mph - N/A   Mostly Cloudy
11:20 AM 44.6 °F 38.4 °F 35.6 °F 71% 29.95 in 6.2 mi ESE 12.7 mph - N/A   Mostly Cloudy
11:50 AM 44.6 °F 38.1 °F 35.6 °F 71% 29.95 in 6.2 mi ESE 13.8 mph - N/A   Mostly Cloudy
12:20 PM 44.6 °F 37.8 °F 35.6 °F 71% 29.92 in 6.2 mi East 15.0 mph - N/A   Mostly Cloudy
12:50 PM 44.6 °F 38.1 °F 35.6 °F 71% 29.92 in 6.2 mi ESE 13.8 mph - N/A   Mostly Cloudy
1:20 PM 44.6 °F 38.1 °F 35.6 °F 71% 29.92 in 6.2 mi East 13.8 mph 27.6 mph N/A   Mostly Cloudy
1:50 PM 44.6 °F 37.4 °F 35.6 °F 71% 29.92 in 6.2 mi ESE 16.1 mph - N/A Rain Light Rain
2:20 PM 44.6 °F 37.4 °F 35.6 °F 71% 29.89 in 6.2 mi East 16.1 mph - N/A Rain Light Rain
2:50 PM 44.6 °F 38.4 °F 37.4 °F 76% 29.89 in 6.2 mi ESE 12.7 mph - N/A Rain Light Rain
3:20 PM 42.8 °F 35.1 °F 37.4 °F 81% 29.89 in 4.3 mi ESE 16.1 mph - N/A Rain Light Rain
3:50 PM 42.8 °F 34.5 °F 37.4 °F 81% 29.89 in 3.1 mi East 18.4 mph - N/A Rain Rain
4:20 PM 42.8 °F 35.8 °F 39.2 °F 87% 29.89 in 3.7 mi East 13.8 mph - N/A Rain Rain
4:50 PM 42.8 °F 35.1 °F 39.2 °F 87% 29.86 in 4.3 mi East 16.1 mph - N/A Rain Rain
5:20 PM 42.8 °F 35.4 °F 39.2 °F 87% 29.86 in 6.2 mi East 15.0 mph - N/A Rain Light Rain
5:50 PM 42.8 °F 35.4 °F 39.2 °F 87% 29.86 in 6.2 mi East 15.0 mph - N/A Rain Light Rain
6:20 PM 42.8 °F 36.2 °F 39.2 °F 87% 29.86 in 5.6 mi East 12.7 mph - N/A Rain Light Rain
6:50 PM 41.0 °F 33.9 °F 39.2 °F 93% 29.86 in 5.0 mi East 12.7 mph - N/A Rain Light Rain
7:20 PM 41.0 °F 34.7 °F 39.2 °F 93% 29.86 in 6.2 mi East 10.4 mph - N/A Rain Light Rain
7:50 PM 41.0 °F 35.8 °F 39.2 °F 93% 29.83 in 6.2 mi ENE 8.1 mph - N/A   Mostly Cloudy
8:20 PM 41.0 °F 35.2 °F 39.2 °F 93% 29.86 in 6.2 mi East 9.2 mph - N/A   Mostly Cloudy
8:50 PM 42.8 °F 36.2 °F 37.4 °F 81% 29.83 in 6.2 mi East 12.7 mph - N/A   Mostly Cloudy
9:20 PM 42.8 °F 36.6 °F 37.4 °F 81% 29.83 in 6.2 mi East 11.5 mph - N/A   Mostly Cloudy
9:50 PM 42.8 °F 37.0 °F 37.4 °F 81% 29.83 in 6.2 mi East 10.4 mph - N/A   Mostly Cloudy
10:20 PM 42.8 °F 37.0 °F 37.4 °F 81% 29.83 in 6.2 mi East 10.4 mph - N/A Rain Light Rain
10:50 PM 41.0 °F 34.3 °F 37.4 °F 87% 29.83 in 6.2 mi East 11.5 mph - N/A Rain Light Rain
11:20 PM 41.0 °F 34.3 °F 37.4 °F 87% 29.83 in 6.2 mi East 11.5 mph - N/A Rain Light Rain
11:50 PM 41.0 °F 34.3 °F 37.4 °F 87% 29.80 in 6.2 mi ENE 11.5 mph - N/A   Mostly Cloudy